Wetbulb
37.11 37.78 38.24 38.50 38.98 40.08 40.76 41.77 42.71 44.00 44.97 46.07 47.50 48.80 50.21 51.58 54.67 54.65 55.70 55.11 53.19 52.08 51.75 52.21 49.01 49.85 49.14 49.59 50.26 51.12 52.92 52.45 44.85 38.79 38.85 36.37 33.51 33.43 34.21 34.93 34.54 34.48 36.05
37.40 38.04 37.37 37.60 38.15 38.63 39.28 40.24 41.91 42.78 44.41 44.70 46.07 47.88 48.59 48.64 50.95 51.95 49.99 49.77 49.29 47.21 46.50 46.34 46.31 46.81 46.26 45.73 45.91 45.53 46.22 46.48 45.48 37.70 35.42 32.75 32.38 33.21 33.83 33.41 32.43 33.32 34.61
37.17 37.86 37.14 36.53 36.93 37.24 37.76 38.57 39.68 41.37 42.78 43.72 44.08 44.10 44.56 45.47 45.18 45.44 45.65 44.47 43.77 43.43 44.11 45.02 44.42 45.67 43.94 42.38 41.89 41.16 42.66 41.01 41.65 36.75 31.72 33.39 32.52 32.99 32.79 32.93 32.41 33.65 32.89
36.48 37.15 36.56 35.69 35.73 36.18 36.85 37.34 37.97 39.53 40.75 41.34 41.32 41.59 41.93 42.46 42.47 42.30 42.33 41.36 40.43 39.97 40.03 40.59 40.51 41.43 41.00 39.14 38.08 38.33 38.26 37.90 36.52 34.92 32.73 31.61 32.49 30.97 32.04 32.61 32.01 31.94 31.56
35.49 35.67 35.33 35.27 35.48 35.76 35.88 36.34 37.12 37.64 38.28 39.25 39.26 39.70 40.27 40.41 41.01 41.02 40.10 40.28 38.88 37.31 36.44 36.65 36.96 35.27 34.84 36.22 36.62 36.32 37.23 36.98 35.93 34.11 32.00 31.28 30.78 30.43 30.23 30.53 31.21 31.75 31.65
33.96 35.30 35.74 34.93 34.77 34.69 34.88 35.20 35.83 36.16 36.71 37.24 37.25 38.11 38.48 38.45 38.66 39.24 40.18 37.89 37.00 37.05 36.18 36.12 36.23 34.80 35.60 35.58 35.29 35.09 36.74 36.56 34.88 34.21 32.74 30.88 29.48 30.11 30.48 31.02 31.33 32.45 33.27
34.46 34.97 34.31 33.87 33.66 33.87 34.06 34.57 34.20 34.75 35.44 35.32 35.97 36.96 37.12 37.22 37.27 37.03 36.74 38.43 37.53 36.27 35.21 33.92 32.85 33.55 34.31 33.61 33.48 33.41 32.57 34.03 35.41 35.79 33.14 32.32 30.28 30.61 30.13 29.61 29.54 31.38 30.12
34.20 34.24 34.19 34.39 33.50 33.53 33.67 34.03 33.82 33.90 34.40 34.45 35.12 35.91 36.12 35.71 35.97 35.38 35.34 37.06 36.21 35.56 35.31 35.26 34.44 33.78 33.57 33.10 33.02 32.05 31.76 32.13 32.48 32.61 32.68 31.69 31.73 31.31 31.33 30.86 30.13 28.28 28.18
32.89 33.22 32.52 32.84 32.74 33.16 33.44 33.20 33.11 33.49 33.94 32.91 33.30 33.96 34.36 34.65 34.77 34.52 35.13 34.93 33.73 33.36 33.67 34.30 34.07 33.46 32.07 32.80 32.13 30.39 30.48 30.37 32.46 32.23 32.11 31.52 30.29 29.87 29.88 29.86 29.40 31.16 30.72
32.16 32.57 32.15 31.97 31.59 32.36 32.04 31.92 32.11 31.76 30.74 31.51 31.31 32.85 31.96 33.72 33.81 33.56 34.24 33.86 32.37 31.47 32.14 31.74 31.40 33.61 32.29 32.40 31.62 30.30 28.70 28.48 28.62 28.36 28.33 28.12 28.39 27.80 28.02 29.63 28.95 31.57 30.94
31.15 31.06 30.47 30.45 30.04 31.10 30.82 30.62 31.15 31.39 30.98 31.06 30.89 31.15 31.95 33.06 33.99 33.35 33.04 33.37 32.70 32.24 32.04 32.00 32.81 32.73 32.28 31.66 31.64 31.19 29.52 29.41 28.58 28.28 28.40 28.17 27.60 26.93 26.27 26.03 26.18 28.96 30.13
29.53 29.29 28.97 28.60 29.49 29.69 28.99 29.19 28.97 30.03 30.03 29.40 30.41 30.59 30.88 30.93 31.85 33.45 33.03 32.24 32.81 32.95 32.31 32.50 33.12 32.60 32.11 31.31 30.58 30.82 30.75 29.42 29.64 29.24 28.68 27.76 27.18 26.16 24.73 23.98 22.88 23.40 23.67
26.69 26.40 27.23 27.18 27.99 28.75 29.19 28.60 29.22 29.07 30.23 28.54 29.00 30.70 31.03 30.70 31.80 32.54 32.95 32.86 30.96 30.90 32.05 32.56 33.01 32.67 32.05 31.58 31.33 30.66 28.66 29.78 29.22 28.37 28.40 27.46 27.24 24.89 22.69 24.10 23.32 23.07 23.89
27.03 26.88 26.70 26.43 27.09 26.57 28.29 29.07 29.70 29.76 29.43 28.50 28.33 29.20 29.85 30.61 31.10 31.30 32.52 33.03 30.25 30.70 31.33 32.07 31.74 31.42 31.15 31.34 30.03 29.01 29.01 29.73 29.37 29.33 28.88 26.86 23.55 23.19 24.98 25.59 26.42 25.97 27.34
28.20 27.99 28.27 28.51 27.38 27.92 27.17 29.13 28.39 29.88 30.62 31.35 30.79 30.13 29.18 29.45 30.30 31.07 31.93 32.09 31.87 31.36 31.39 30.38 28.16 27.91 27.58 28.19 28.54 27.93 27.42 27.34 27.22 28.08 27.03 24.78 24.60 24.06 24.43 22.56 24.55 24.33 27.62
28.96 28.83 29.33 29.13 28.63 28.37 28.49 28.68 28.95 29.59 28.54 29.41 29.44 29.15 29.42 28.13 28.29 29.20 31.14 31.08 30.61 30.98 28.45 26.44 24.86 24.59 24.69 25.94 26.06 25.79 26.33 26.09 27.25 26.81 26.22 25.95 25.11 23.82 23.83 21.52 23.06 24.65 25.78
29.86 30.86 30.15 28.22 29.44 28.77 28.08 28.52 28.89 29.25 30.20 30.62 30.68 31.14 30.38 28.90 29.09 30.54 31.84 31.70 31.07 29.76 26.25 25.35 25.38 25.08 24.51 24.90 25.81 26.14 26.37 27.13 27.26 26.60 25.21 24.13 24.78 24.38 21.80 22.43 22.10 22.19 23.12
28.81 30.32 30.78 30.51 30.40 30.19 29.92 29.89 30.06 30.31 29.05 28.74 31.04 31.61 31.87 32.00 30.99 30.61 32.14 31.54 29.62 29.81 27.78 26.44 24.72 25.99 25.29 25.25 24.58 24.97 25.88 26.26 25.68 25.36 24.08 23.96 22.58 22.77 21.65 22.81 22.30 21.91 23.57
29.29 30.23 29.91 31.23 30.75 30.57 30.56 30.15 30.04 29.64 29.64 30.79 27.97 29.59 31.53 32.47 32.58 31.64 31.98 30.67 29.68 29.02 29.08 28.48 28.14 26.03 26.00 25.63 25.07 24.05 23.91 23.79 24.82 25.34 24.14 23.66 22.15 21.75 21.54 22.74 22.51 19.99 20.93
29.13 29.64 29.80 30.65 30.56 29.53 29.92 29.55 29.10 28.98 29.17 29.54 29.36 29.44 29.38 30.88 30.55 30.61 30.43 30.57 30.44 30.23 30.32 30.27 30.63 30.01 27.39 26.28 25.54 24.91 23.50 22.39 23.00 24.08 25.53 23.89 23.33 21.68 21.43 21.02 21.54 19.83 18.68
30.19 30.00 28.26 29.52 30.25 29.69 29.94 29.29 29.01 29.10 28.81 29.34 29.74 30.57 29.08 29.09 30.43 30.62 30.88 30.80 30.49 30.69 30.52 29.86 29.65 30.18 29.69 26.51 25.67 24.61 23.16 22.98 22.53 23.29 24.74 25.25 23.24 21.80 22.23 22.61 21.73 20.95 21.98
30.39 30.01 29.15 29.00 29.73 29.46 29.27 30.10 29.64 29.50 29.28 29.05 29.94 30.33 29.70 27.86 29.11 29.87 30.57 31.17 31.53 31.70 32.00 31.76 31.11 30.20 30.26 26.67 25.61 24.31 22.74 22.61 23.35 22.59 23.47 23.11 21.96 21.68 22.19 22.01 21.02 20.74 20.29
29.82 29.59 28.75 29.12 29.26 28.13 28.30 29.25 29.43 29.50 29.42 29.55 29.83 29.94 28.95 29.04 28.33 28.61 29.84 30.92 31.48 31.63 31.91 31.75 31.42 30.43 29.04 27.38 26.88 25.84 24.48 23.86 24.63 23.98 23.23 22.49 21.50 21.74 21.74 21.06 20.56 19.99 19.49
28.63 28.57 28.52 28.07 27.81 27.96 28.16 28.30 28.68 27.64 29.30 29.53 29.94 30.06 29.96 29.00 29.92 29.46 29.33 30.43 30.54 30.93 31.35 31.03 31.11 30.77 29.72 27.73 26.83 26.32 25.99 26.50 26.57 24.45 23.65 22.89 21.87 21.47 21.84 21.11 20.91 20.58 20.36
27.70 27.65 27.47 27.54 27.29 26.62 27.32 27.29 28.13 28.55 28.92 28.60 29.02 29.13 29.89 30.04 29.33 30.01 30.64 29.81 29.36 29.69 29.50 30.02 29.87 29.52 28.77 28.49 26.77 26.05 25.58 24.79 25.30 25.02 23.33 23.32 22.44 21.76 21.31 21.45 21.57 20.91 20.34
26.42 26.46 26.68 26.67 26.29 26.74 27.14 27.56 27.58 27.89 27.88 28.68 28.96 29.23 29.82 29.78 30.14 30.10 29.66 29.73 29.22 28.71 29.26 29.28 28.92 28.82 28.30 28.06 28.14 26.38 24.61 23.85 23.42 23.78 23.98 23.18 22.44 22.30 21.97 21.59 21.46 21.09 20.24
MSLP
1023.45 1023.29 1022.83 1022.32 1022.00 1021.79 1021.50 1021.10 1020.64 1020.44 1020.06 1019.82 1019.77 1019.30 1018.97 1018.43 1018.48 1018.56 1018.75 1019.09 1019.29 1019.72 1019.82 1020.06 1020.52 1020.72 1020.90 1021.16 1020.92 1020.83 1021.05 1021.35 1022.57 1024.92 1025.65 1026.67 1027.15 1027.16 1027.08 1027.04 1026.92 1026.65 1026.48
1023.46 1022.87 1022.51 1022.47 1022.39 1022.36 1022.08 1021.64 1020.90 1020.50 1020.22 1020.11 1020.12 1019.79 1019.41 1019.10 1018.89 1018.85 1019.32 1019.59 1019.88 1020.26 1020.48 1020.63 1021.10 1021.30 1021.36 1021.47 1021.71 1021.78 1021.67 1021.98 1022.56 1024.44 1025.82 1026.61 1027.13 1027.37 1027.51 1027.43 1027.31 1027.00 1026.75
1023.53 1023.55 1023.26 1023.29 1023.26 1023.04 1022.55 1022.12 1021.28 1020.95 1020.73 1020.66 1020.33 1020.04 1019.93 1019.76 1019.60 1019.69 1019.92 1020.43 1020.57 1020.95 1021.08 1021.22 1021.59 1021.60 1021.87 1022.19 1022.08 1022.40 1022.32 1022.85 1022.78 1023.97 1025.72 1026.69 1027.30 1027.49 1027.71 1027.91 1027.54 1027.19 1027.14
1023.78 1023.62 1023.81 1023.83 1023.52 1023.11 1022.84 1022.32 1021.88 1021.56 1021.23 1020.94 1020.56 1020.54 1020.51 1020.39 1020.18 1020.30 1020.66 1020.95 1021.30 1021.80 1022.00 1022.21 1022.24 1022.38 1022.50 1022.66 1022.62 1022.71 1022.90 1023.33 1023.86 1024.59 1025.62 1026.60 1027.25 1027.78 1027.80 1027.74 1027.82 1027.77 1027.68
1023.87 1023.87 1023.71 1023.59 1023.49 1023.78 1023.21 1022.91 1022.50 1022.34 1022.15 1021.63 1021.17 1021.27 1021.14 1020.91 1020.71 1020.83 1021.14 1021.64 1021.90 1022.45 1022.46 1023.05 1023.22 1023.23 1023.31 1023.22 1023.29 1023.42 1023.32 1023.63 1024.17 1024.95 1025.81 1026.63 1027.21 1027.66 1027.73 1027.92 1028.06 1028.17 1028.34
1023.86 1023.92 1023.95 1024.12 1024.31 1024.24 1023.79 1023.62 1023.33 1023.34 1022.96 1022.31 1022.13 1022.00 1021.79 1021.80 1021.71 1021.63 1021.70 1022.18 1022.62 1023.00 1023.06 1023.77 1023.86 1023.95 1023.89 1023.85 1023.90 1024.06 1024.06 1024.14 1024.38 1024.88 1025.57 1026.18 1027.16 1027.59 1027.67 1027.94 1028.22 1028.23 1028.35
1023.72 1023.97 1024.22 1024.31 1024.20 1024.08 1024.12 1024.15 1024.02 1023.93 1023.53 1023.21 1022.81 1022.75 1022.78 1022.93 1022.87 1022.68 1022.60 1022.67 1023.36 1023.77 1023.95 1024.27 1024.42 1024.81 1024.70 1024.73 1024.80 1024.76 1025.15 1025.13 1025.08 1024.61 1025.34 1026.25 1026.98 1027.22 1027.78 1028.10 1028.13 1028.40 1028.81
1024.07 1024.14 1024.22 1024.16 1024.33 1024.40 1024.18 1023.98 1024.12 1024.23 1024.14 1023.70 1023.52 1023.72 1023.73 1023.67 1023.51 1023.59 1023.81 1023.49 1023.99 1024.29 1024.76 1024.54 1024.48 1024.93 1025.08 1025.19 1025.43 1025.25 1025.54 1026.25 1026.01 1026.05 1026.41 1027.08 1027.32 1027.51 1027.68 1027.82 1028.45 1029.09 1029.40
1023.53 1024.00 1024.36 1024.62 1024.54 1024.38 1024.39 1024.44 1024.42 1024.20 1024.00 1023.97 1024.10 1024.19 1024.26 1024.31 1024.39 1024.40 1024.28 1024.26 1024.53 1025.18 1025.33 1025.02 1024.96 1025.23 1025.63 1025.54 1025.88 1026.31 1026.22 1027.03 1027.38 1027.50 1027.62 1027.90 1028.09 1028.11 1027.99 1028.14 1028.62 1028.71 1028.95
1022.87 1023.28 1023.71 1024.21 1024.47 1024.38 1024.40 1024.43 1024.37 1024.34 1024.41 1024.53 1024.67 1024.70 1024.76 1024.80 1024.94 1025.03 1024.76 1025.03 1025.40 1025.83 1025.77 1025.72 1025.73 1025.67 1026.15 1026.14 1026.47 1026.87 1026.90 1027.34 1027.80 1028.29 1028.41 1028.48 1028.41 1028.63 1028.68 1028.44 1028.60 1028.68 1028.96
1022.86 1023.06 1023.35 1023.61 1023.99 1024.57 1024.72 1024.82 1024.88 1024.72 1024.58 1024.70 1024.86 1025.00 1025.03 1025.02 1024.95 1025.05 1025.22 1025.41 1025.77 1026.07 1026.13 1026.14 1026.41 1026.65 1026.74 1026.81 1026.93 1027.19 1027.24 1027.59 1028.06 1028.37 1028.52 1028.68 1028.86 1029.05 1029.18 1029.24 1029.18 1028.82 1029.21
1023.25 1023.54 1023.73 1023.79 1024.02 1024.19 1024.52 1024.99 1025.30 1025.32 1025.29 1025.10 1024.93 1024.99 1025.20 1025.20 1025.10 1025.06 1025.33 1025.58 1025.83 1026.14 1026.30 1026.47 1026.79 1026.98 1027.03 1027.24 1027.53 1027.64 1027.66 1027.87 1028.12 1028.44 1028.62 1028.91 1029.19 1029.53 1029.85 1029.99 1030.18 1030.17 1030.25
1023.28 1023.71 1024.20 1024.45 1024.51 1024.77 1024.88 1025.09 1025.36 1025.34 1025.48 1025.58 1025.34 1025.10 1024.91 1024.98 1025.15 1025.19 1025.26 1025.46 1025.92 1026.20 1026.47 1026.67 1026.81 1026.97 1027.17 1027.50 1027.81 1028.01 1028.31 1028.26 1028.38 1028.55 1028.72 1029.09 1029.45 1029.84 1030.29 1030.31 1030.58 1030.64 1030.46
1022.47 1022.97 1023.55 1024.11 1024.52 1024.85 1024.92 1024.89 1024.56 1024.55 1025.18 1025.51 1025.71 1025.73 1025.49 1025.39 1025.25 1025.19 1025.43 1025.57 1026.02 1026.21 1026.39 1026.61 1026.92 1027.20 1027.48 1027.64 1028.09 1028.44 1028.49 1028.34 1028.41 1028.57 1028.80 1029.35 1029.99 1030.26 1030.20 1030.31 1030.33 1030.33 1030.23
1022.13 1022.20 1022.43 1022.80 1023.35 1023.61 1023.96 1023.85 1024.09 1024.34 1024.39 1024.27 1024.59 1025.23 1025.72 1025.64 1025.54 1025.48 1025.32 1025.44 1025.85 1026.21 1026.45 1026.80 1027.12 1027.43 1027.75 1027.94 1028.13 1028.36 1028.48 1028.55 1028.56 1028.60 1028.89 1029.26 1029.55 1029.84 1030.07 1030.56 1030.37 1030.41 1030.22
1021.72 1021.88 1021.93 1022.16 1022.44 1022.87 1023.27 1023.49 1023.64 1023.72 1023.91 1024.19 1024.53 1024.50 1024.69 1025.01 1025.30 1025.46 1025.68 1025.94 1026.14 1026.14 1026.49 1026.88 1027.15 1027.30 1027.47 1027.65 1027.84 1028.02 1028.19 1028.29 1028.29 1028.53 1028.78 1028.96 1029.16 1029.48 1029.82 1030.36 1030.40 1030.23 1030.15
1020.49 1020.62 1020.96 1021.43 1021.75 1021.94 1022.27 1022.51 1022.54 1023.00 1023.40 1023.70 1023.64 1023.80 1024.04 1024.12 1024.33 1024.49 1024.88 1025.31 1025.94 1026.57 1026.60 1026.61 1026.61 1026.86 1027.02 1027.26 1027.36 1027.51 1027.52 1027.72 1028.01 1028.29 1028.52 1028.76 1029.00 1029.27 1029.70 1029.81 1029.98 1030.06 1030.06
1019.27 1019.47 1019.79 1020.01 1020.40 1020.71 1020.98 1021.41 1021.77 1022.15 1022.58 1022.83 1022.82 1022.59 1022.63 1022.86 1023.43 1023.87 1024.39 1024.91 1025.08 1025.14 1025.41 1025.72 1025.90 1026.05 1026.21 1026.28 1026.63 1026.86 1027.04 1027.27 1027.51 1027.70 1027.98 1028.23 1028.59 1028.85 1029.18 1029.23 1029.41 1029.52 1029.59
1018.40 1018.57 1018.90 1019.21 1019.49 1019.64 1019.84 1020.08 1020.58 1020.97 1021.13 1021.43 1022.02 1022.23 1022.45 1022.68 1022.93 1023.14 1023.14 1023.42 1023.83 1024.05 1024.13 1024.33 1024.50 1024.87 1025.03 1025.29 1025.52 1025.85 1026.09 1026.29 1026.55 1026.86 1027.24 1027.55 1027.90 1028.18 1028.34 1028.59 1028.89 1029.23 1029.35
1017.50 1017.73 1018.08 1018.39 1018.92 1019.34 1019.59 1019.45 1019.42 1019.87 1020.12 1020.50 1020.80 1020.95 1021.73 1022.40 1022.11 1021.94 1022.18 1022.29 1022.45 1022.58 1022.76 1022.85 1023.05 1023.44 1023.78 1024.14 1024.58 1024.93 1025.29 1025.58 1025.74 1026.05 1026.32 1026.80 1027.13 1027.44 1027.65 1027.97 1028.19 1028.64 1028.92
1016.72 1016.97 1017.34 1017.77 1017.90 1018.24 1018.67 1018.73 1018.67 1018.65 1018.92 1019.05 1019.11 1019.62 1020.37 1020.84 1020.81 1020.92 1021.12 1021.21 1021.03 1021.06 1021.46 1021.71 1021.83 1022.16 1022.47 1022.85 1023.24 1023.64 1024.01 1024.33 1024.63 1024.80 1025.05 1025.38 1025.91 1026.33 1026.58 1026.96 1027.39 1027.66 1027.88
1015.73 1015.92 1016.37 1016.62 1017.02 1017.23 1017.63 1018.07 1017.68 1017.45 1017.66 1018.23 1018.23 1018.47 1018.94 1019.60 1019.58 1019.57 1019.54 1019.46 1019.40 1019.72 1019.92 1020.23 1020.60 1020.79 1020.96 1021.53 1021.85 1022.29 1022.67 1022.89 1023.14 1023.53 1023.81 1024.14 1024.67 1025.14 1025.64 1025.87 1026.39 1027.02 1027.31
1015.56 1015.48 1015.46 1015.88 1016.39 1016.87 1017.07 1017.20 1017.37 1017.12 1016.76 1016.93 1017.43 1017.77 1018.21 1018.45 1018.71 1018.82 1018.51 1018.50 1018.46 1018.33 1018.61 1018.83 1019.02 1019.42 1019.81 1020.30 1020.60 1020.75 1020.87 1020.93 1021.10 1021.79 1022.36 1022.82 1023.23 1023.68 1024.23 1024.86 1025.21 1025.80 1026.21
1015.19 1015.27 1015.15 1015.28 1015.86 1016.15 1016.61 1016.67 1016.71 1016.45 1016.03 1016.26 1016.46 1017.01 1017.23 1017.56 1017.59 1017.62 1017.83 1017.79 1017.80 1017.79 1017.94 1017.84 1017.88 1018.06 1018.06 1018.73 1019.37 1019.63 1019.62 1019.57 1019.89 1020.42 1020.95 1021.50 1021.94 1022.40 1022.96 1023.53 1024.04 1024.32 1025.08
1014.78 1014.80 1014.93 1014.97 1015.51 1015.60 1015.71 1016.19 1016.14 1016.10 1015.86 1015.64 1015.67 1015.91 1016.18 1016.76 1017.11 1017.04 1017.01 1017.12 1016.98 1016.92 1017.00 1017.11 1017.02 1017.12 1017.42 1017.40 1017.64 1018.07 1018.41 1018.84 1019.02 1019.16 1019.68 1020.13 1020.59 1021.02 1021.51 1022.06 1022.70 1023.17 1023.74
1014.43 1014.42 1014.63 1014.88 1015.06 1015.31 1015.36 1015.57 1015.49 1015.49 1015.28 1014.89 1015.03 1015.21 1015.57 1015.87 1016.14 1016.12 1016.56 1016.47 1016.26 1016.10 1015.92 1016.12 1016.14 1016.49 1016.63 1016.63 1016.73 1016.95 1017.22 1017.67 1018.06 1018.32 1018.66 1018.99 1019.37 1019.90 1020.38 1020.77 1021.48 1022.14 1022.53
Wind_Speed
6 6 6 6 6 5 5 5 4 4 5 4 5 4 3 2 2 3 2 2 4 3 2 3 5 3 3 4 3 2 0 1 4 3 3 4 3 4 4 6 5 6 6
7 7 8 8 7 6 5 6 5 4 4 4 5 4 2 1 1 5 5 5 5 5 5 6 5 2 5 4 3 3 3 3 3 6 3 3 3 4 3 5 5 5 5
7 6 6 7 6 6 6 6 6 4 3 3 2 3 4 4 5 6 7 6 7 6 5 5 4 5 5 3 4 2 3 3 4 5 4 2 3 2 2 2 5 5 4
6 7 6 6 7 7 7 6 6 6 4 3 5 5 4 4 6 7 7 8 8 7 7 6 5 4 5 5 4 4 5 6 7 7 5 4 2 3 2 1 3 5 5
5 5 6 6 6 6 7 7 6 6 5 5 5 6 6 5 4 7 6 8 8 8 8 7 7 8 10 7 3 4 5 6 6 7 5 3 2 2 1 1 1 1 3
3 4 5 4 4 4 5 6 6 5 5 5 6 6 6 5 7 8 8 6 7 7 10 8 9 9 14 16 17 16 8 5 7 5 4 4 3 3 2 1 2 1 0
1 1 3 4 4 5 4 4 5 5 5 6 6 7 8 6 8 10 8 7 7 7 7 6 7 5 7 10 16 19 18 18 10 5 9 5 4 2 3 2 2 2 2
2 1 3 2 1 2 2 4 5 3 4 4 6 6 6 6 8 10 7 9 7 7 6 6 7 7 7 7 8 12 13 11 10 8 9 8 6 4 3 3 3 4 3
7 5 3 1 2 1 2 3 3 4 5 6 4 5 5 6 6 6 6 7 7 6 5 5 6 7 8 9 8 9 12 11 13 16 15 14 12 10 4 4 3 2 2
7 6 5 3 1 1 2 2 2 2 3 3 4 5 4 4 5 5 5 4 5 3 4 5 5 8 9 8 7 7 9 8 8 6 6 8 8 10 9 5 1 2 2
5 6 6 5 5 3 2 1 2 1 4 4 4 3 2 2 4 5 5 3 4 4 3 4 3 7 7 7 6 4 5 9 9 6 5 5 4 5 5 6 6 3 2
5 5 4 5 4 4 4 2 1 1 0 1 3 3 1 0 1 4 4 3 5 3 3 3 4 7 8 8 3 10 13 9 5 4 4 3 3 4 4 6 7 7 6
6 5 4 3 4 4 5 4 2 3 3 3 3 2 3 2 1 1 5 8 6 4 4 6 9 8 7 5 10 10 7 3 4 4 4 3 3 4 4 4 4 4 6
8 8 7 7 6 5 4 4 5 6 4 3 3 4 3 3 3 3 3 5 6 6 8 6 6 5 5 5 6 6 3 3 3 3 4 4 4 3 3 1 2 2 2
7 7 8 7 8 7 7 7 7 6 6 5 5 4 4 4 4 5 5 5 5 5 6 4 3 5 5 5 6 6 5 4 5 4 5 5 5 4 4 3 2 2 2
8 7 7 7 7 6 6 6 13 11 12 11 7 6 5 7 2 7 9 7 8 14 5 6 6 6 7 7 7 7 6 7 6 5 5 5 5 6 5 4 3 4 4
11 9 7 8 7 7 7 7 6 7 14 13 14 15 12 6 11 8 12 12 12 12 5 6 7 7 7 7 7 7 7 6 6 6 6 5 5 5 5 5 5 5 4
12 12 8 8 8 8 8 8 6 6 7 7 16 16 19 18 14 13 14 13 9 13 8 8 8 7 7 8 8 7 7 6 7 7 7 7 6 6 6 6 7 6 6
9 8 9 8 7 8 7 7 7 7 7 6 4 10 14 18 17 16 19 11 10 10 11 11 10 8 8 7 7 7 8 7 7 7 7 7 8 7 7 7 6 6 5
8 10 8 7 6 7 7 7 7 8 8 7 7 8 6 9 10 11 11 10 10 10 9 10 9 8 8 8 8 7 8 8 8 8 8 7 7 7 7 7 7 7 7
6 7 11 8 8 8 8 9 9 9 9 8 9 8 14 9 10 10 10 11 11 11 11 10 9 9 8 8 8 8 9 8 9 9 9 9 8 8 8 7 7 7 6
6 7 7 8 7 8 8 8 8 8 8 8 7 8 19 11 10 11 12 12 12 12 9 10 9 9 9 9 9 9 10 10 10 10 10 9 9 9 8 8 8 7 7
6 7 7 7 7 7 7 8 8 8 8 8 7 7 7 10 10 10 11 10 10 10 10 10 10 9 9 9 9 10 11 12 12 11 11 11 10 10 10 9 10 8 9
6 7 7 6 6 7 7 8 8 9 8 7 7 7 8 9 10 11 10 10 10 10 9 10 10 13 11 10 9 10 10 10 9 11 14 11 10 11 10 9 10 12 10
6 6 6 6 6 7 6 7 7 8 7 7 7 7 7 8 8 9 9 9 9 9 11 10 9 12 14 16 14 16 15 16 13 12 11 13 13 15 13 10 11 10 12
5 5 5 4 5 6 6 6 7 6 7 6 6 6 6 7 8 7 8 9 8 9 10 8 10 15 15 13 16 18 17 17 16 17 12 11 12 11 11 13 16 10 13
Wind_Direction
356 351 350 354 351 342 331 330 336 318 327 317 308 302 291 328 246 219 142 119 111 113 64 92 71 55 55 10 358 52 43 18 108 93 79 107 51 56 52 48 41 46 26
344 353 5 1 353 346 338 331 338 336 335 316 311 304 326 10 72 118 103 85 121 105 91 90 95 104 82 66 53 47 85 50 118 120 123 100 90 52 50 50 45 39 29
352 2 16 4 351 345 346 338 351 347 352 336 31 46 32 33 73 69 97 96 87 70 69 92 109 105 95 93 82 81 67 52 70 126 127 123 85 66 108 44 38 31 22
355 3 16 9 357 353 347 355 0 357 9 35 53 58 70 79 80 83 91 92 86 83 70 63 58 72 110 108 98 101 104 97 91 96 89 102 108 82 77 157 82 41 8
352 6 12 14 10 351 2 0 12 18 16 31 54 55 53 56 75 102 98 112 109 100 83 67 61 74 73 73 105 100 105 111 109 110 111 112 104 122 133 84 91 49 41
360 358 16 18 14 14 18 11 21 19 26 46 42 54 62 58 76 101 117 102 105 110 104 105 91 88 83 82 76 63 52 125 127 123 116 119 115 117 92 75 148 183 130
15 53 5 9 23 31 23 39 34 21 24 31 47 50 58 62 71 76 88 103 103 107 113 118 101 84 85 89 86 80 64 59 51 115 128 115 128 119 133 160 79 74 60
116 355 339 339 32 8 23 58 50 31 39 40 47 55 68 57 73 86 83 98 98 100 115 123 116 117 108 105 99 95 83 64 62 71 89 92 91 106 101 74 87 103 118
163 169 166 232 325 345 82 85 68 76 59 56 46 60 62 70 65 72 81 88 93 100 103 110 110 113 120 117 111 101 94 91 80 83 86 88 80 69 81 123 162 197 105
173 168 156 146 121 26 8 17 48 81 93 91 78 62 58 88 92 100 95 106 119 121 109 105 113 133 137 123 130 135 121 124 117 108 100 86 71 67 56 55 134 199 111
167 162 161 158 151 146 121 18 315 158 134 122 120 97 87 93 125 125 129 141 157 162 150 128 117 140 142 135 137 145 136 137 127 121 109 93 80 69 57 53 43 41 122
172 178 173 163 165 160 152 147 143 177 165 128 156 151 158 357 158 151 148 135 150 147 142 124 132 136 123 124 137 137 137 130 132 133 128 120 114 91 71 61 54 60 50
167 176 189 192 184 175 176 179 198 190 190 224 226 236 197 174 174 194 150 146 135 124 134 139 145 144 139 130 142 151 148 151 148 158 163 157 136 111 116 103 89 89 82
181 182 180 185 195 212 202 204 198 190 206 205 229 261 250 242 216 188 175 156 140 137 145 143 154 151 161 164 165 173 209 196 188 185 175 144 129 154 153 149 138 122 99
195 190 193 199 196 188 211 202 208 225 216 191 192 200 224 242 249 229 190 174 171 163 151 130 142 171 187 193 200 208 214 206 209 195 183 177 172 171 181 184 193 167 202
206 205 209 200 196 202 209 221 226 235 212 221 225 210 186 208 286 236 218 206 182 169 168 191 199 201 206 206 210 212 216 216 214 202 205 197 189 189 182 187 205 210 185
213 205 202 206 210 201 203 215 222 210 229 230 223 225 223 221 215 209 199 198 195 188 229 220 215 210 212 211 211 213 214 210 207 211 209 205 203 200 184 193 197 199 201
211 215 208 203 201 201 201 205 199 196 206 215 230 223 218 211 202 203 201 200 200 205 207 223 223 223 216 207 204 209 208 201 205 208 208 203 197 197 196 207 201 202 199
205 213 208 215 213 212 202 193 196 203 212 211 196 227 223 222 218 208 199 200 210 216 219 225 221 219 216 208 206 203 204 204 203 201 205 202 197 194 203 209 207 207 189
210 216 207 207 211 213 215 211 197 207 212 217 215 219 181 198 209 208 207 213 219 226 222 225 220 216 217 211 211 208 208 205 203 205 206 201 202 200 205 198 198 193 205
205 202 205 212 208 204 214 213 208 203 212 214 222 210 198 201 214 213 214 219 220 219 220 220 218 222 215 208 205 205 209 210 208 206 203 202 195 202 202 201 200 197 189
201 199 195 210 210 209 215 227 218 212 211 224 227 221 209 209 216 216 217 217 214 221 221 218 221 219 216 209 205 204 207 212 209 205 206 201 196 200 199 199 194 199 191
214 209 202 210 212 216 214 216 221 220 218 216 220 221 206 220 225 231 232 231 229 221 216 217 218 222 216 216 212 211 209 212 210 199 202 199 197 199 196 200 196 194 193
215 217 213 206 215 216 223 219 224 224 217 221 219 226 228 225 230 229 233 232 230 232 230 222 224 226 217 212 217 219 223 220 205 202 198 200 201 195 194 195 198 197 199
213 211 213 212 220 220 221 233 231 232 226 221 225 228 234 243 240 243 239 235 238 236 236 234 233 230 229 225 219 218 220 222 215 201 195 201 203 197 197 198 197 195 191
217 215 216 216 219 229 232 241 240 237 238 228 230 234 241 245 246 236 242 244 239 238 233 234 232 235 235 234 233 226 222 217 213 209 200 201 199 200 197 200 197 195 190